Hourly Data Report for November 03, 2019

SHEARWATER RCS
NOVA SCOTIA
Current Station Operator: ECCC - MSC

44°37'47.000" N
63°30'48.000" W
24.00 m
8205092
71264
AAW

Download Data

Hourly Data (November 2019)
Hourly Data Report for November 3, 2019
TIME
LST
Temp Definition
°C
Dew Point Definition
°C
Rel Hum Definition
%
Precip. Amount Definition
mm

Wind Dir Definition
10's deg

Wind Spd Definition
km/h
Visibility Definition
km
Stn Press Definition
kPa
Hmdx Definition


Wind Chill Definition


Weather Definition


00:00 6.5 2.5 76 0.0 15 11   101.63     LegendNANA
01:00 7.3 2.9 73 0.0 16 12   101.52     LegendNANA
02:00 7.6 2.9 73 0.0 16 11   101.42     LegendNANA
03:00 6.6 3.1 79 0.0 33 5   101.33     LegendNANA
04:00 4.5 1.9 83 0.0 1 3   101.24     LegendNANA
05:00 5.1 2.5 83 0.0 4 11   101.05     LegendNANA
06:00 5.8 3.5 86 0.0 4 10   101.00     LegendNANA
07:00 6.2 4.1 86 0.5 2 10   100.86     LegendNANA
08:00 5.7 4.2 90 1.1 31 3   100.87     LegendNANA
09:00 5.8 4.5 92 0.3 28 4   100.80     LegendNANA
10:00 6.5 5.2 92 0.0 31 2   100.87     LegendNANA
11:00 7.7 6.3 91 0.0 32 6   100.83     LegendNANA
12:00 9.8 6.9 82 0.0 25 4   100.80     LegendNANA
13:00 10.5 5.5 71 0.0 25 15   100.77     LegendNANA
14:00 11.3 4.8 64 0.0 25 13   100.77     LegendNANA
15:00 11.5 3.3 57 0.0 24 16   100.82     LegendNANA
16:00 10.7 2.4 56 0.0 27 19   100.94     LegendNANA
17:00 9.1 3.8 69 0.0 27 12   101.04     LegendNANA
18:00 8.4 4.0 74 0.0 27 12   101.20     LegendNANA
19:00 7.4 2.8 73 0.0 29 10   101.29     LegendNANA
20:00 6.2 2.2 76 0.0 25 8   101.37     LegendNANA
21:00 5.5 1.6 76 0.0 26 6   101.47     LegendNANA
22:00 5.6 1.6 75 0.0 26 8   101.51     LegendNANA
23:00 5.1 1.5 77 0.0 31 6   101.58     LegendNANA

Notes on Data Quality.

Legend

  • E = Estimated
  • M = Missing
  • NA = Not Available*
  • [empty] = Indicates an unobserved value
Date modified: